Regional Weather Roundup
Issued by NWS

Home | Current Version | Previous Version | Graphics & Text | Print | Product List | Glossary On
Versions: 1 2 3 4 5 6 7 8 9 10 11 12 13 14 15 16 17 18 19 20 21 22 23 24 25 26 27 28 29 30 31 32 33 34 35 36 37 38 39 40 41 42 43 44 45 46 47 48 49 50
000
ASUS43 KOAX 161602
RWRNE

WEATHER ROUNDUP FOR NEBRASKA
NATIONAL WEATHER SERVICE OMAHA NE
1100 AM CDT WED AUG 16 2017

NOTES: SATELLITE DATA IS BEING USED TO AUGMENT CLOUD COVER ABOVE
       12000 FEET.
       "FAIR" INDICATES FEW OR NO CLOUDS BELOW 12,000 FEET WITH NO
       SIGNIFICANT WEATHER AND/OR OBSTRUCTIONS TO VISIBILITY.


NEZ001>004-019>022-054>056-161700-
NEBRASKA PANHANDLE

CITY           SKY/WX    TMP DP  RH WIND       PRES   REMARKS
SCOTTSBLUFF    PTSUNNY   66  56  70 NW9       30.05R
ALLIANCE       CLOUDY    63  55  75 N13       30.03R
CHADRON        CLOUDY    67  56  67 N15G21    30.02R
GORDON         CLOUDY    62  59  89 N15       30.00R
KIMBALL        CLOUDY    63  52  66 N12       30.10R
SIDNEY         CLOUDY    63  56  78 N14       30.07R
$$

NEZ057>060-069>072-079>082-161700-
SOUTHWEST NEBRASKA

CITY           SKY/WX    TMP DP  RH WIND       PRES   REMARKS
NORTH PLATTE   CLOUDY    71  62  73 W9        29.95R
IMPERIAL       CLOUDY    67  59  75 NW15      29.99R
LEXINGTON      MOSUNNY   71  61  71 NW15      29.92S
MCCOOK         CLOUDY    69  62  78 W15       29.95R
OGALLALA       CLOUDY    68  61  78 NW12      29.99R
$$

NEZ005>010-023>029-035>040-094-161700-
NORTH CENTRAL NEBRASKA

CITY           SKY/WX    TMP DP  RH WIND       PRES   REMARKS
VALENTINE      LGT RAIN  66  60  81 N12       29.92R
AINSWORTH      HVY RAIN  64  64 100 NW7G17    29.89S VSB 1
BROKEN BOW     CLOUDY    68  60  75 NW7       29.91R
O`NEILL        CLOUDY    65  65 100 N3        29.86S
ORD            CLOUDY    68  63  84 N8        29.85S
THEDFORD       CLOUDY    69  63  79 N13       29.94R
$$

NEZ041-046>049-061>064-073>077-083>087-161700-
SOUTH CENTRAL NEBRASKA

CITY           SKY/WX    TMP DP  RH WIND       PRES   REMARKS
GRAND ISLAND   CLOUDY    70  65  84 W17       29.85S
AURORA         CLOUDY    68  65  91 W13G18    29.85R
HASTINGS       PTSUNNY   69  62  78 NW14      29.88R
HEBRON         CLOUDY    73  64  73 W14G23    29.86R
HOLDREGE       MOSUNNY   70  59  68 NW16      29.91S
KEARNEY        PTSUNNY   70  61  73 NW15      29.90R
YORK           CLOUDY    68  66  94 W14G23    29.83R
$$

NEZ011>018-030>034-042>045-161700-
NORTHEAST NEBRASKA

CITY           SKY/WX    TMP DP  RH WIND       PRES   REMARKS
NORFOLK        CLOUDY    68  64  87 CALM      29.79R
ALBION         CLOUDY    68  66  95 NW9       29.81S
BLAIR          RAIN      73  71  93 E7        29.71F
COLUMBUS       MOSUNNY   69  67  93 W7        29.79R
FREMONT        CLOUDY    71  69  96 SW9       29.76R
TEKAMAH        CLOUDY    73  70  90 E5        29.71F
WAYNE          CLOUDY    69  66  92 NE6       29.75F
$$

NEZ050>053-065>068-078-088>093-161700-
SOUTHEAST NEBRASKA

CITY           SKY/WX    TMP DP  RH WIND       PRES   REMARKS
LINCOLN        CLOUDY    73  66  78 W9        29.80R
OMAHA EPPLEY   CLOUDY    76  70  82 E10       29.71F
BEATRICE       CLOUDY    72  67  84 W12       29.82R
FALLS CITY     PTSUNNY   74  72  93 SE12      29.74F
NEBRASKA CITY  CLOUDY    72  72 100 S8        29.76R
PLATTSMOUTH    PTSUNNY   73  70  90 E10       29.73F
$$

NEZ044-045-051>053-067-161700-
OMAHA AREA

CITY           SKY/WX    TMP DP  RH WIND       PRES   REMARKS
OMAHA EPPLEY   CLOUDY    76  70  82 E10       29.71F
BLAIR          RAIN      73  71  93 E7        29.71F
FREMONT        CLOUDY    71  69  96 SW9       29.76R
MILLARD        CLOUDY    74  70  87 CALM      29.71F
OFFUTT AFB     CLOUDY    76  67  73 E9        29.71F
PLATTSMOUTH    PTSUNNY   73  70  90 E10       29.73F
WAHOO          CLOUDY    71  69  95 SW8       29.78R
$$



USA.gov is the U.S. government's official web portal to all federal, state and local government web resources and services.